Location: Dreilärchen
(47.9312°N, 8.6113°E)
Time: 20:09:30
(UTC+00:00)

CRYOSAT 2 - Pass Details

Date: 26 May 2022
Orbit: 716 x 723 km, 92.0° (Epoch: 02 July)

Event Time Altitude Azimuth Distance (km) Brightness Sun altitude
Exits shadow 01:36:44 17° 177° (S) 1,778 5.9 -14.7°
Maximum altitude 01:40:33 84° 265° (W) 733 4.3 -14.4°
Drops below altitude 10° 01:45:28 10° 354° (N) 2,223 7.7 -13.9°
Sets 01:47:47 0° 355° (N) 3,149 8.5 -13.7°
